クラーク彗星

71P/Clark (2017)

English version
Home page
Updated on October 9, 2017

---------------------------------------------------------------------

・ プロフィール

・ 写真集

・ 軌道要素

Epoch 2017 June 16.0 TT = JDT 2457920.5
T 2017 June 30.19860 TT                                 MPCW
q   1.5862703            (2000.0)            P               Q
n   0.17738652     Peri.  208.91259     -0.03429084     +0.98936860
a   3.1370562      Node    59.44591     -0.88248591     +0.03639899
e   0.4943443      Incl.    9.44593     -0.46908715     -0.14080086
P   5.56
From 1113 observations 2005 Dec. 22-2017 May 6, mean residual 0".8.
     Nongravitational parameters A1 = +2.46, A2 = +0.0844, A3 = -0.5255.

・ 星図

・ 光度変化

        m1 = 7.2 + 5 logΔ + 20.0 log r(t - 30)

---------------------------------------------------------------------

軌道要素はM.P.E.C. 2017-J52に掲載されたものです。
星図はステラナビゲータ Ver.8 (アストロアーツ) で作成したものです。
光度グラフはComet for Windowsで作成したものです。

---------------------------------------------------------------------

Copyright(C) Seiichi Yoshida (comet@aerith.net). All rights reserved.